Location: Anankanda
(14.7841°N, 3.0348°W)
Time: 01:03:05
(UTC+00:00)

CSL-04 Rocket - Pass Details

Date: 17 January 2021
Orbit: 806 x 860 km, 98.9° (Epoch: 07 March)

Event Time Altitude Azimuth Distance (km) Brightness Sun altitude
Rises 19:14:11 0° 153° (SSE) 3,318 6.7 -17.0°
Reaches altitude 10° 19:16:36 10° 146° (SSE) 2,392 5.9 -17.6°
Maximum altitude 19:21:36 44° 75° (ENE) 1,111 3.8 -18.7°
Drops below altitude 10° 19:26:40 10° 4° (N) 2,423 5.9 -19.9°
Sets 19:29:07 0° 358° (N) 3,366 6.7 -20.5°
